Location: Larne
(54.8508°N, 5.8183°W)
Time: 12:46:29
(UTC+01:00)

ISS - Pass Details

Date: 28 September 2021
Orbit: 417 x 423 km, 51.6° (Epoch: 16 October)

Event Time Altitude Azimuth Distance (km) Brightness Sun altitude
Rises 21:30:53 0° 275° (W) 2,367 1.2 -21.0°
Reaches altitude 10° 21:33:12 10° 262° (W) 1,502 -0.2 -21.3°
Enters shadow 21:35:32 24° 220° (SW) 910 -2.0 -21.5°
